This demonstration page uses our WeatherBlox Daily Observations layout. Learn more.

Left ArrowRight Arrow

39.12711, -84.51439

Hourly Observations for December 9, 2022

Temp ( °F °C ) Dew Point ( °F °C ) Humidity (%) Winds ( mph kmh ) Pressure ( in mb ) Visibility ( mi km ) Precip ( " mm )
12:53 am 00:53 Cloudy with Mist and Fog 44 6.7 41 5 89 89 NE 7 11 30.25 1024 3 5 0.00 0.00
1:53 am 01:53 Cloudy with Mist and Fog 44 6.7 41 5 89 89 NE 6 9 30.24 1024 3 5 0.00 0.00
2:53 am 02:53 Cloudy with Mist and Fog 44 6.7 41 5 89 89 NE 7 11 30.24 1024 3 5 0.00 0.00
3:53 am 03:53 Cloudy with Mist and Fog 44 6.7 41 5 89 89 NNE 7 11 30.23 1024 3 5 0.00 0.00
4:22 am 04:22 Cloudy with Mist and Fog 43 6.1 40 4.4 89 89 NE 7 11 30.24 1024 3 4 0.00 0.00
4:53 am 04:53 Cloudy with Mist and Fog 43 6.1 40 4.4 89 89 NNE 7 11 30.21 1023 3 5 0.00 0.00
5:08 am 05:08 Cloudy with Mist and Fog 43 6.1 40 4.4 89 89 NNE 8 13 30.22 1023 3 4 0.00 0.00
5:20 am 05:20 Cloudy with Mist and Fog 42 5.6 39 3.9 89 89 NE 9 15 30.22 1023 3 5 0.00 0.00
5:53 am 05:53 Cloudy with Mist and Fog 42 5.6 39 3.9 89 89 NE 7 11 30.21 1023 3 5 0.00 0.00
6:53 am 06:53 Cloudy with Mist and Fog 42 5.6 39 3.9 89 89 NE 5 7 30.22 1023 3 5 0.00 0.00
7:53 am 07:53 Cloudy with Mist and Fog 43 6.1 40 4.4 89 89 NNE 5 7 30.22 1023 3 5 0.00 0.00
8:53 am 08:53 Cloudy with Mist and Fog 43 6.1 40 4.4 89 89 NE 5 7 30.22 1023 3 5 0.00 0.00
9:53 am 09:53 Mostly Cloudy with Haze 45 7.2 40 4.4 82 82 NE 7 11 30.21 1023 4 6 0.00 0.00
10:53 am 10:53 Mostly Cloudy with Haze 48 8.9 40 4.4 73 73 E 5 7 30.19 1022 4 6 0.00 0.00
11:53 am 11:53 Cloudy with Haze 50 10 41 5 71 71 NNE 7 11 30.16 1021 5 8 0.00 0.00
12:53 pm 12:53 Cloudy with Haze 51 10.6 41 5 68 68 ENE 7 11 30.11 1020 6 10 0.00 0.00
1:27 pm 13:27 Mostly Cloudy 53 11.7 39 3.9 59 59 SE 5 7 30.10 1019 8 13 0.00 0.00
1:53 pm 13:53 Cloudy 53 11.7 39 3.9 59 59 ESE 6 9 30.09 1019 9 14 0.00 0.00
2:53 pm 14:53 Cloudy 53 11.7 41 5 63 63 SSW 5 7 30.07 1018 10 16 0.00 0.00
3:53 pm 15:53 Cloudy 51 10.6 45 7.2 79 79 W 6 9 30.09 1019 8 13 0.01 0.13
4:53 pm 16:53 Cloudy 51 10.6 46 7.8 83 83 Calm 30.10 1019 9 14 0.00 0.00
5:53 pm 17:53 Cloudy 51 10.6 46 7.8 83 83 WNW 3 6 30.11 1020 7 11 0.00 0.00
6:27 pm 18:27 Cloudy with Mist and Fog 50 10 48 8.9 93 93 WNW 5 7 30.13 1020 2 3 0.00 0.00
6:34 pm 18:34 Cloudy with Light Rain 50 10 48 8.9 93 93 NW 3 6 30.13 1020 2 2 0.01 0.13
6:53 pm 18:53 Cloudy with Drizzle 48 8.9 47 8.3 96 96 N 5 7 30.12 1020 3 5 0.01 0.13
7:03 pm 19:03 Cloudy with Mist and Fog 48 8.9 47 8.3 96 96 NNE 3 6 30.13 1020 3 5 0.01 0.13
7:51 pm 19:51 Cloudy with Mist and Fog 48 9 45 7 87 87 Calm 30.15 1021 5 8 0.01 0.13
7:53 pm 19:53 Cloudy with Mist and Fog 48 8.9 45 7.2 89 89 Calm 30.14 1021 5 8 0.01 0.13
8:53 pm 20:53 Cloudy with Mist and Fog 48 8.9 45 7.2 89 89 N 3 6 30.14 1021 5 8 0.00 0.00
9:53 pm 21:53 Cloudy with Mist and Fog 47 8.3 44 6.7 90 90 NE 3 6 30.15 1021 5 8 0.00 0.00
10:53 pm 22:53 Cloudy with Mist and Fog 47 8.3 44 6.7 90 90 Calm 30.14 1021 5 8 0.00 0.00
11:13 pm 23:13 Cloudy with Mist and Fog 46 7.8 44 6.7 93 93 Calm 30.16 1021 5 8 0.00 0.00
11:53 pm 23:53 Cloudy with Mist and Fog 46 7.8 44 6.7 93 93 Calm 30.16 1021 5 8 0.00 0.00

Powered by AerisWeather